| time (UTC) | temp F | wind direction | speed MPH | gust MPH | rain 1hr in | rain 24hr in | rain mn in | humidity % | barometer mb |
| 20260505213701 | 51 | 230 | 0.0 | 0.0 | 0.04 | 0.00 | 1.00 | 54 | 1005.4 |
| 20260505213145 | 51 | 222 | 0.0 | 0.0 | 0.04 | 0.00 | 1.00 | 54 | 1005.6 |
| 20260505212628 | 51 | 222 | 0.0 | 0.0 | 0.04 | 0.00 | 1.00 | 54 | 1005.4 |
| 20260505212112 | 51 | 222 | 0.0 | 0.0 | 0.04 | 0.00 | 1.00 | 54 | 1005.6 |
| 20260505211550 | 51 | 222 | 0.0 | 0.0 | 0.04 | 0.00 | 1.00 | 55 | 1005.8 |
| 20260505211033 | 51 | 227 | 0.0 | 0.0 | 0.04 | 0.00 | 1.00 | 55 | 1005.7 |
| 20260505210516 | 51 | 230 | 0.0 | 0.0 | 0.04 | 0.00 | 1.00 | 54 | 1005.6 |
| 20260505210000 | 52 | 223 | 0.0 | 0.0 | 0.04 | 0.00 | 1.00 | 53 | 1005.6 |
| 20260505205443 | 52 | 230 | 0.0 | 0.0 | 0.04 | 0.00 | 1.00 | 53 | 1006.0 |
| 20260505204926 | 52 | 231 | 0.0 | 0.0 | 0.04 | 0.00 | 1.00 | 52 | 1005.8 |
| 20260505204410 | 52 | 230 | 0.0 | 0.0 | 0.04 | 0.00 | 1.00 | 52 | 1006.1 |
| 20260505203853 | 52 | 230 | 0.0 | 0.0 | 0.04 | 0.00 | 1.00 | 52 | 1005.6 |
| 20260505203336 | 52 | 231 | 0.0 | 0.0 | 0.04 | 0.00 | 1.00 | 52 | 1005.7 |
| 20260505202819 | 52 | 231 | 0.0 | 0.0 | 0.04 | 0.00 | 1.00 | 51 | 1005.7 |
| 20260505202307 | 53 | 231 | 0.0 | 0.0 | 0.04 | 0.00 | 1.00 | 51 | 1005.7 |
| 20260505201746 | 53 | 231 | 0.0 | 0.0 | 0.04 | 0.00 | 1.00 | 51 | 1005.6 |
| 20260505201229 | 53 | 231 | 0.0 | 0.0 | 0.04 | 0.00 | 1.00 | 51 | 1005.5 |
| 20260505200712 | 53 | 231 | 0.0 | 0.0 | 0.04 | 0.00 | 1.00 | 50 | 1005.4 |
| 20260505200155 | 53 | 231 | 0.0 | 0.0 | 0.04 | 0.00 | 1.00 | 50 | 1005.5 |
| 20260505195638 | 54 | 231 | 0.0 | 0.0 | 0.04 | 0.00 | 1.00 | 50 | 1005.5 |
| 20260505195121 | 54 | 231 | 0.0 | 0.0 | 0.04 | 0.00 | 1.00 | 50 | 1005.3 |
| 20260505194605 | 54 | 231 | 0.0 | 0.0 | 0.04 | 0.00 | 1.00 | 49 | 1005.3 |
| 20260505194048 | 54 | 231 | 0.0 | 0.0 | 0.04 | 0.00 | 1.00 | 48 | 1005.3 |
| 20260505193532 | 54 | 231 | 0.0 | 0.0 | 0.04 | 0.00 | 1.00 | 48 | 1005.3 |
| 20260505193015 | 55 | 231 | 0.0 | 0.0 | 0.04 | 0.00 | 1.00 | 48 | 1005.0 |
| 20260505192459 | 55 | 231 | 0.0 | 0.0 | 0.04 | 0.00 | 1.00 | 48 | 1005.1 |
| 20260505191942 | 55 | 231 | 0.0 | 0.0 | 0.04 | 0.00 | 1.00 | 48 | 1004.9 |
| 20260505191425 | 55 | 231 | 0.0 | 0.0 | 0.04 | 0.00 | 1.00 | 47 | 1004.8 |
| 20260505190909 | 55 | 231 | 0.0 | 0.0 | 0.04 | 0.00 | 1.00 | 46 | 1005.0 |
| 20260505190351 | 56 | 237 | 0.0 | 0.0 | 0.04 | 0.00 | 1.00 | 44 | 1005.1 |
| 20260505185834 | 56 | 230 | 0.0 | 0.0 | 0.04 | 0.00 | 1.00 | 43 | 1005.1 |
| 20260505185317 | 57 | 230 | 0.0 | 0.0 | 0.04 | 0.00 | 1.00 | 43 | 1004.7 |
| 20260505184800 | 57 | 222 | 0.0 | 0.0 | 0.04 | 0.00 | 1.00 | 41 | 1004.7 |
| 20260505184243 | 58 | 223 | 0.0 | 0.0 | 0.04 | 0.00 | 1.00 | 42 | 1004.7 |
| 20260505183725 | 58 | 229 | 0.0 | 0.0 | 0.04 | 0.00 | 1.00 | 42 | 1004.7 |
| 20260505183209 | 59 | 228 | 0.0 | 0.0 | 0.04 | 0.00 | 1.00 | 41 | 1004.9 |
| 20260505182652 | 59 | 228 | 0.0 | 0.0 | 0.04 | 0.00 | 1.00 | 38 | 1004.9 |
| 20260505182128 | 59 | 228 | 0.0 | 0.0 | 0.04 | 0.00 | 1.00 | 38 | 1004.5 |
| 20260505181612 | 59 | 228 | 0.0 | 0.0 | 0.04 | 0.00 | 1.00 | 38 | 1004.5 |
| 20260505181055 | 60 | 235 | 0.0 | 0.0 | 0.04 | 0.00 | 1.00 | 37 | 1004.5 |
| 20260505180539 | 60 | 235 | 0.0 | 0.0 | 0.04 | 0.00 | 1.00 | 37 | 1004.5 |
| 20260505180022 | 60 | 226 | 0.0 | 0.0 | 0.04 | 0.00 | 1.00 | 36 | 1004.4 |
| 20260505174448 | 60 | 234 | 0.0 | 0.0 | 0.04 | 0.00 | 1.00 | 37 | 1004.3 |
| 20260505173931 | 60 | 234 | 0.0 | 0.0 | 0.04 | 0.00 | 1.00 | 36 | 1004.4 |
| 20260505173415 | 60 | 234 | 0.0 | 0.0 | 0.04 | 0.00 | 1.00 | 37 | 1004.7 |
| 20260505172858 | 60 | 234 | 0.0 | 0.0 | 0.04 | 0.00 | 1.00 | 38 | 1004.5 |
| 20260505172342 | 60 | 235 | 0.0 | 0.0 | 0.04 | 0.00 | 1.00 | 36 | 1004.4 |
| 20260505171825 | 60 | 233 | 0.0 | 0.0 | 0.04 | 0.00 | 1.00 | 33 | 1004.3 |
| 20260505171307 | 60 | 234 | 0.0 | 0.0 | 0.04 | 0.00 | 1.00 | 34 | 1004.0 |
| 20260505170751 | 60 | 218 | 0.0 | 0.0 | 0.04 | 0.00 | 1.00 | 34 | 1004.1 |
| 20260505170234 | 60 | 236 | 0.0 | 0.0 | 0.04 | 0.00 | 1.00 | 32 | 1004.1 |
| 20260505165715 | 61 | 228 | 0.0 | 0.0 | 0.04 | 0.00 | 1.00 | 32 | 1004.0 |
| 20260505165157 | 61 | 229 | 0.0 | 0.0 | 0.04 | 0.00 | 1.00 | 32 | 1003.8 |
| 20260505164638 | 61 | 229 | 0.0 | 0.0 | 0.04 | 0.00 | 1.00 | 31 | 1004.0 |
| 20260505164122 | 62 | 225 | 0.0 | 0.0 | 0.04 | 0.00 | 1.00 | 32 | 1004.0 |
| 20260505163604 | 62 | 209 | 0.0 | 0.0 | 0.04 | 0.00 | 1.00 | 33 | 1003.9 |
| 20260505163048 | 62 | 197 | 0.0 | 0.0 | 0.04 | 0.00 | 1.00 | 32 | 1004.1 |
| 20260505162531 | 62 | 249 | 0.0 | 0.0 | 0.04 | 0.00 | 1.00 | 28 | 1004.1 |
| 20260505162015 | 62 | 252 | 0.0 | 0.0 | 0.04 | 0.00 | 1.00 | 28 | 1004.1 |
| 20260505160956 | 61 | 219 | 0.0 | 0.0 | 0.04 | 0.00 | 1.00 | 31 | 1004.3 |
| 20260505160439 | 61 | 228 | 0.0 | 0.0 | 0.04 | 0.00 | 1.00 | 33 | 1004.4 |
| 20260505153258 | 61 | 218 | 0.0 | 0.0 | 0.04 | 0.00 | 1.00 | 39 | 1004.4 |
| 20260505152739 | 61 | 228 | 0.0 | 0.0 | 0.04 | 0.00 | 1.00 | 38 | 1004.3 |
| 20260505152222 | 61 | 227 | 0.0 | 0.0 | 0.04 | 0.00 | 1.00 | 36 | 1004.3 |
| 20260505151705 | 61 | 210 | 0.0 | 0.0 | 0.03 | 0.00 | 1.00 | 31 | 1004.3 |
| 20260505151148 | 61 | 210 | 0.0 | 0.0 | 0.03 | 0.00 | 1.00 | 31 | 1004.5 |
| 20260505150632 | 62 | 210 | 0.0 | 0.0 | 0.03 | 0.00 | 1.00 | 32 | 1004.2 |
| 20260505150115 | 62 | 210 | 0.0 | 0.0 | 0.03 | 0.00 | 1.00 | 31 | 1004.2 |
| 20260505140334 | 66 | 234 | 0.0 | 0.0 | 0.03 | 0.00 | 1.00 | 24 | 1003.5 |
| 20260505123951 | 66 | 222 | 0.0 | 0.0 | 0.03 | 0.00 | 1.00 | 24 | 1004.3 |
| 20260505123434 | 66 | 214 | 0.0 | 0.0 | 0.03 | 0.00 | 1.00 | 24 | 1004.0 |
| 20260505122917 | 67 | 228 | 0.0 | 0.0 | 0.03 | 0.00 | 1.00 | 24 | 1004.1 |
| 20260505122400 | 67 | 192 | 0.0 | 0.0 | 0.03 | 0.00 | 1.00 | 23 | 1004.1 |
| 20260505121841 | 68 | 213 | 0.0 | 0.0 | 0.03 | 0.00 | 1.00 | 22 | 1004.0 |
| 20260505121325 | 68 | 220 | 0.0 | 0.0 | 0.03 | 0.00 | 1.00 | 23 | 1004.2 |
| 20260505120808 | 68 | 211 | 0.0 | 0.0 | 0.03 | 0.00 | 1.00 | 23 | 1004.8 |
| 20260505120249 | 68 | 173 | 0.0 | 0.0 | 0.03 | 0.00 | 1.00 | 23 | 1004.4 |
| 20260505115732 | 67 | 185 | 0.0 | 0.0 | 0.03 | 0.00 | 1.00 | 24 | 1004.6 |
| 20260505115215 | 66 | 211 | 0.0 | 0.0 | 0.03 | 0.00 | 1.00 | 25 | 1004.4 |
| 20260505114658 | 66 | 176 | 0.0 | 0.0 | 0.03 | 0.00 | 1.00 | 25 | 1004.3 |
| 20260505114140 | 65 | 215 | 0.0 | 0.0 | 0.03 | 0.00 | 1.00 | 26 | 1004.6 |
| 20260505113624 | 64 | 195 | 0.0 | 0.0 | 0.03 | 0.00 | 1.00 | 25 | 1004.9 |
| 20260505113107 | 63 | 229 | 0.0 | 0.0 | 0.03 | 0.00 | 1.00 | 30 | 1004.5 |
| 20260505112550 | 62 | 228 | 0.0 | 0.0 | 0.03 | 0.00 | 1.00 | 30 | 1004.9 |
| 20260505112032 | 61 | 220 | 0.0 | 0.0 | 0.03 | 0.00 | 1.00 | 32 | 1004.9 |
| 20260505111515 | 60 | 226 | 0.0 | 0.0 | 0.03 | 0.00 | 1.00 | 34 | 1004.9 |
| 20260505110958 | 60 | 229 | 0.0 | 0.0 | 0.03 | 0.00 | 1.00 | 35 | 1004.9 |
| 20260505110441 | 59 | 225 | 0.0 | 0.0 | 0.03 | 0.00 | 1.00 | 34 | 1005.0 |
| 20260505101711 | 57 | 230 | 0.0 | 0.0 | 0.03 | 0.00 | 1.00 | 40 | 1005.2 |
| 20260505101154 | 57 | 222 | 0.0 | 0.0 | 0.03 | 0.00 | 1.00 | 41 | 1005.5 |
| 20260505100637 | 57 | 221 | 0.0 | 0.0 | 0.03 | 0.00 | 1.00 | 44 | 1005.4 |
| 20260505100120 | 57 | 224 | 0.0 | 0.0 | 0.03 | 0.00 | 1.00 | 47 | 1005.4 |
| 20260505095604 | 57 | 223 | 0.0 | 0.0 | 0.03 | 0.00 | 1.00 | 51 | 1005.0 |
| 20260505095047 | 57 | 219 | 0.0 | 0.0 | 0.03 | 0.00 | 1.00 | 52 | 1005.1 |
| 20260505094530 | 56 | 226 | 0.0 | 0.0 | 0.03 | 0.00 | 1.00 | 53 | 1005.3 |
| 20260505094013 | 56 | 217 | 0.0 | 0.0 | 0.03 | 0.00 | 1.00 | 54 | 1005.1 |
| 20260505092953 | 56 | 222 | 0.0 | 0.0 | 0.03 | 0.00 | 1.00 | 55 | 1005.1 |
| 20260505092436 | 56 | 219 | 0.0 | 0.0 | 0.03 | 0.00 | 1.00 | 59 | 1005.3 |
| 20260505091919 | 56 | 230 | 0.0 | 0.0 | 0.03 | 0.00 | 1.00 | 60 | 1005.4 |
| 20260505091400 | 56 | 223 | 0.0 | 0.0 | 0.03 | 0.00 | 1.00 | 62 | 1005.5 |
| 20260505090844 | 56 | 213 | 0.0 | 0.0 | 0.03 | 0.00 | 1.00 | 65 | 1005.2 |
| 20260505090327 | 56 | 223 | 0.0 | 0.0 | 0.03 | 0.00 | 1.00 | 72 | 1005.2 |
| 20260505085811 | 56 | 225 | 0.0 | 0.0 | 0.03 | 0.00 | 1.00 | 74 | 1005.0 |
| 20260505085254 | 56 | 219 | 0.0 | 0.0 | 0.03 | 0.00 | 1.00 | 76 | 1005.3 |
| 20260505084737 | 56 | 218 | 0.0 | 0.0 | 0.03 | 0.00 | 1.00 | 78 | 1005.6 |
| 20260505084221 | 55 | 239 | 0.0 | 0.0 | 0.03 | 0.00 | 1.00 | 79 | 1005.4 |
| 20260505083703 | 55 | 236 | 0.0 | 0.0 | 0.03 | 0.00 | 1.00 | 79 | 1005.3 |
| 20260505083147 | 55 | 220 | 0.0 | 0.0 | 0.03 | 0.00 | 1.00 | 79 | 1005.3 |
| 20260505082630 | 55 | 228 | 0.0 | 0.0 | 0.03 | 0.00 | 1.00 | 80 | 1005.2 |
| 20260505082114 | 55 | 229 | 0.0 | 0.0 | 0.03 | 0.00 | 1.00 | 80 | 1005.3 |
| 20260505081557 | 55 | 228 | 0.0 | 0.0 | 0.03 | 0.00 | 1.00 | 80 | 1005.3 |
| 20260505081041 | 55 | 226 | 0.0 | 0.0 | 0.03 | 0.00 | 1.00 | 81 | 1005.5 |
| 20260505080524 | 55 | 225 | 0.0 | 0.0 | 0.03 | 0.00 | 1.00 | 82 | 1005.4 |
| 20260505080008 | 54 | 231 | 0.0 | 0.0 | 0.03 | 0.00 | 1.00 | 82 | 1005.8 |
| 20260505073947 | 54 | 236 | 0.0 | 0.0 | 0.02 | 0.00 | 1.00 | 81 | 1005.9 |
| 20260505073430 | 54 | 228 | 0.0 | 0.0 | 0.02 | 0.00 | 1.00 | 81 | 1006.2 |
| 20260505072914 | 54 | 228 | 0.0 | 0.0 | 0.02 | 0.00 | 1.00 | 81 | 1005.9 |
| 20260505072358 | 54 | 228 | 0.0 | 0.0 | 0.01 | 0.00 | 1.00 | 81 | 1006.1 |
| 20260505071841 | 54 | 228 | 0.0 | 0.0 | 0.01 | 0.00 | 1.00 | 81 | 1005.9 |
| 20260505071324 | 54 | 228 | 0.0 | 0.0 | 0.00 | 0.00 | 1.00 | 81 | 1006.1 |
| 20260505070808 | 54 | 229 | 0.0 | 0.0 | 0.00 | 0.00 | 1.00 | 82 | 1006.0 |
| 20260505070251 | 54 | 229 | 0.0 | 0.0 | 0.00 | 0.00 | 1.00 | 82 | 1006.0 |
| 20260505065735 | 54 | 229 | 0.0 | 0.0 | 0.00 | 0.00 | 1.00 | 82 | 1006.0 |
| 20260505065218 | 54 | 229 | 0.0 | 0.0 | 0.00 | 0.00 | 1.00 | 82 | 1006.0 |
| 20260505064702 | 54 | 229 | 0.0 | 0.0 | 0.00 | 0.00 | 1.00 | 82 | 1006.0 |
| 20260505064145 | 54 | 229 | 0.0 | 0.0 | 0.00 | 0.00 | 1.00 | 82 | 1006.0 |
| 20260505063629 | 54 | 228 | 0.0 | 0.0 | 0.00 | 0.00 | 1.00 | 82 | 1006.1 |
| 20260505063111 | 54 | 230 | 0.0 | 0.0 | 0.00 | 0.00 | 1.00 | 82 | 1006.0 |
| 20260505062555 | 54 | 230 | 0.0 | 0.0 | 0.00 | 0.00 | 1.00 | 82 | 1006.2 |
| 20260505062038 | 54 | 233 | 0.0 | 0.0 | 0.00 | 0.00 | 1.00 | 82 | 1006.2 |
| 20260505061522 | 54 | 226 | 0.0 | 0.0 | 0.00 | 0.00 | 1.00 | 83 | 1006.2 |
| 20260505061005 | 54 | 231 | 0.0 | 0.0 | 0.00 | 0.00 | 1.00 | 83 | 1006.3 |
| 20260505055946 | 54 | 228 | 0.0 | 0.0 | 0.00 | 0.00 | 1.00 | 83 | 1006.6 |
| 20260505055430 | 54 | 227 | 0.0 | 0.0 | 0.00 | 0.00 | 1.00 | 83 | 1006.3 |
| 20260505054913 | 54 | 228 | 0.0 | 0.0 | 0.00 | 0.00 | 1.00 | 83 | 1006.1 |
| 20260505054354 | 54 | 229 | 0.0 | 0.0 | 0.00 | 0.00 | 1.00 | 83 | 1006.2 |
| 20260505053837 | 53 | 229 | 0.0 | 0.0 | 0.00 | 0.00 | 1.00 | 83 | 1006.3 |
| 20260505053320 | 53 | 233 | 0.0 | 0.0 | 0.00 | 0.00 | 1.00 | 83 | 1006.1 |
| 20260505052803 | 53 | 234 | 0.0 | 0.0 | 0.00 | 0.00 | 1.00 | 83 | 1006.1 |
| 20260505052246 | 53 | 236 | 0.0 | 0.0 | 0.00 | 0.00 | 1.00 | 83 | 1006.0 |
| 20260505051729 | 53 | 232 | 0.0 | 0.0 | 0.00 | 0.00 | 1.00 | 83 | 1005.8 |
| 20260505051210 | 53 | 231 | 0.0 | 0.0 | 0.00 | 0.00 | 1.00 | 83 | 1006.0 |
| 20260505050653 | 53 | 231 | 0.0 | 0.0 | 0.00 | 0.00 | 1.00 | 83 | 1005.9 |
| 20260505050136 | 53 | 231 | 0.0 | 0.0 | 0.00 | 0.00 | 1.00 | 83 | 1006.1 |
| 20260505041417 | 53 | 232 | 0.0 | 0.0 | 0.00 | 0.00 | 1.00 | 83 | 1006.1 |
| 20260505040859 | 53 | 232 | 0.0 | 0.0 | 0.00 | 0.00 | 1.00 | 83 | 1006.3 |
| 20260505040343 | 53 | 232 | 0.0 | 0.0 | 0.00 | 0.00 | 1.00 | 84 | 1006.2 |
| 20260505035825 | 53 | 232 | 0.0 | 0.0 | 0.00 | 0.00 | 1.00 | 84 | 1006.0 |
| 20260505035308 | 53 | 230 | 0.0 | 0.0 | 0.00 | 0.00 | 1.00 | 84 | 1006.0 |
| 20260505034751 | 53 | 230 | 0.0 | 0.0 | 0.00 | 0.00 | 1.00 | 83 | 1005.8 |
| 20260505034234 | 53 | 230 | 0.0 | 0.0 | 0.00 | 0.00 | 1.00 | 83 | 1005.8 |
| 20260505033718 | 53 | 230 | 0.0 | 0.0 | 0.00 | 0.00 | 1.00 | 83 | 1006.1 |
| 20260505033201 | 53 | 230 | 0.0 | 0.0 | 0.00 | 0.00 | 1.00 | 83 | 1006.0 |
| 20260505032644 | 53 | 234 | 0.0 | 0.0 | 0.00 | 0.00 | 1.00 | 83 | 1006.1 |
| 20260505032128 | 53 | 235 | 0.0 | 0.0 | 0.00 | 0.00 | 1.00 | 82 | 1006.2 |
| 20260505031611 | 53 | 235 | 0.0 | 0.0 | 0.00 | 0.00 | 1.00 | 83 | 1006.3 |
| 20260505031054 | 53 | 231 | 0.0 | 0.0 | 0.00 | 0.00 | 1.00 | 83 | 1006.2 |
| 20260505030537 | 53 | 231 | 0.0 | 0.0 | 0.00 | 0.00 | 1.00 | 83 | 1006.3 |
| 20260505030021 | 53 | 229 | 0.0 | 0.0 | 0.00 | 0.00 | 1.00 | 83 | 1006.4 |
| 20260505025002 | 53 | 229 | 0.0 | 0.0 | 0.00 | 0.00 | 1.00 | 83 | 1006.5 |
| 20260505024446 | 53 | 228 | 0.0 | 0.0 | 0.00 | 0.00 | 1.00 | 83 | 1006.4 |
| 20260505023929 | 53 | 234 | 0.0 | 0.0 | 0.00 | 0.00 | 1.00 | 83 | 1006.4 |
| 20260505023413 | 53 | 232 | 0.0 | 0.0 | 0.00 | 0.00 | 1.00 | 83 | 1006.6 |
| 20260505022856 | 53 | 232 | 0.0 | 0.0 | 0.00 | 0.00 | 1.00 | 83 | 1006.7 |
| 20260505022340 | 53 | 231 | 0.0 | 0.0 | 0.00 | 0.00 | 1.00 | 83 | 1006.8 |
| 20260505021822 | 53 | 234 | 0.0 | 0.0 | 0.00 | 0.00 | 1.00 | 83 | 1006.6 |
| 20260505021306 | 53 | 238 | 0.0 | 0.0 | 0.00 | 0.00 | 1.00 | 83 | 1006.8 |
| 20260505020749 | 53 | 238 | 0.0 | 0.0 | 0.00 | 0.00 | 1.00 | 83 | 1006.6 |
| 20260505020232 | 53 | 238 | 0.0 | 0.0 | 0.00 | 0.00 | 1.00 | 83 | 1006.8 |
| 20260505015715 | 53 | 228 | 0.0 | 0.0 | 0.00 | 0.00 | 1.00 | 83 | 1006.6 |
| 20260505015158 | 53 | 241 | 0.0 | 0.0 | 0.00 | 0.00 | 1.00 | 83 | 1006.8 |
| 20260505014639 | 53 | 230 | 0.0 | 0.0 | 0.00 | 0.00 | 1.00 | 82 | 1006.8 |
| 20260505014123 | 53 | 233 | 0.0 | 0.0 | 0.00 | 0.00 | 1.00 | 82 | 1006.8 |
| 20260505013606 | 53 | 233 | 0.0 | 0.0 | 0.00 | 0.00 | 1.00 | 83 | 1006.9 |
| 20260505013049 | 53 | 233 | 0.0 | 0.0 | 0.00 | 0.00 | 1.00 | 83 | 1007.0 |
| 20260505012532 | 53 | 233 | 0.0 | 0.0 | 0.00 | 0.00 | 1.00 | 82 | 1006.8 |
| 20260505012016 | 53 | 233 | 0.0 | 0.0 | 0.00 | 0.00 | 1.00 | 82 | 1006.8 |
| 20260505010958 | 53 | 234 | 0.0 | 0.0 | 0.00 | 0.00 | 1.00 | 82 | 1007.0 |
| 20260505010441 | 53 | 231 | 0.0 | 0.0 | 0.00 | 0.00 | 1.00 | 82 | 1007.2 |
| 20260505005924 | 53 | 253 | 0.0 | 0.0 | 0.00 | 0.00 | 1.00 | 82 | 1007.3 |
| 20260505005406 | 53 | 235 | 0.0 | 0.0 | 0.00 | 0.00 | 1.00 | 82 | 1007.6 |
| 20260505004849 | 53 | 240 | 0.0 | 0.0 | 0.00 | 0.00 | 1.00 | 82 | 1007.8 |
| 20260505004332 | 53 | 234 | 0.0 | 0.0 | 0.00 | 0.00 | 1.00 | 82 | 1007.8 |
| 20260505003814 | 53 | 234 | 0.0 | 0.0 | 0.00 | 0.00 | 1.00 | 82 | 1007.8 |
| 20260505003255 | 53 | 230 | 0.0 | 0.0 | 0.00 | 0.00 | 1.00 | 82 | 1007.8 |
| 20260505002739 | 53 | 236 | 0.0 | 0.0 | 0.00 | 0.00 | 1.00 | 82 | 1007.6 |
| 20260505002222 | 53 | 236 | 0.0 | 0.0 | 0.00 | 0.00 | 1.00 | 82 | 1007.9 |
| 20260505001704 | 54 | 231 | 0.0 | 0.0 | 0.00 | 0.00 | 1.00 | 82 | 1007.8 |
| 20260505001147 | 54 | 232 | 0.0 | 0.0 | 0.00 | 0.00 | 1.00 | 82 | 1007.7 |
| 20260505000630 | 54 | 232 | 0.0 | 0.0 | 0.00 | 0.00 | 1.00 | 82 | 1008.0 |
| 20260505000111 | 54 | 232 | 0.0 | 0.0 | 0.00 | 0.00 | 1.00 | 82 | 1007.8 |
| 20260504235554 | 54 | 232 | 0.0 | 0.0 | 0.00 | 0.00 | 1.00 | 82 | 1008.1 |
| 20260504235037 | 54 | 232 | 0.0 | 0.0 | 0.00 | 0.00 | 1.00 | 82 | 1008.2 |
| 20260504234520 | 54 | 233 | 0.0 | 0.0 | 0.00 | 0.00 | 1.00 | 82 | 1008.4 |
| 20260504233459 | 54 | 232 | 0.0 | 0.0 | 0.00 | 0.00 | 1.00 | 82 | 1008.0 |
| 20260504232940 | 54 | 232 | 0.0 | 0.0 | 0.00 | 0.00 | 1.00 | 82 | 1008.3 |
| 20260504232423 | 54 | 235 | 0.0 | 0.0 | 0.00 | 0.00 | 1.00 | 82 | 1008.2 |
| 20260504231904 | 54 | 233 | 0.0 | 0.0 | 0.00 | 0.00 | 1.00 | 82 | 1008.3 |
| 20260504231348 | 54 | 234 | 0.0 | 0.0 | 0.00 | 0.00 | 1.00 | 81 | 1008.3 |
| 20260504230830 | 54 | 233 | 0.0 | 0.0 | 0.00 | 0.00 | 1.00 | 81 | 1008.4 |
| 20260504230312 | 54 | 233 | 0.0 | 0.0 | 0.00 | 0.00 | 1.00 | 81 | 1008.4 |
| 20260504225756 | 54 | 234 | 0.0 | 0.0 | 0.00 | 0.00 | 1.00 | 81 | 1008.5 |
| 20260504225239 | 54 | 234 | 0.0 | 0.0 | 0.00 | 0.00 | 1.00 | 81 | 1008.5 |
| 20260504224723 | 54 | 234 | 0.0 | 0.0 | 0.00 | 0.00 | 1.00 | 81 | 1008.5 |
| 20260504224206 | 54 | 231 | 0.0 | 0.0 | 0.00 | 0.00 | 1.00 | 82 | 1008.5 |
| 20260504223650 | 55 | 233 | 0.0 | 0.0 | 0.00 | 0.00 | 1.00 | 81 | 1008.5 |
| 20260504223133 | 55 | 233 | 0.0 | 0.0 | 0.00 | 0.00 | 1.00 | 81 | 1008.2 |
| 20260504222617 | 55 | 233 | 0.0 | 0.0 | 0.00 | 0.00 | 1.00 | 81 | 1008.5 |
| 20260504222100 | 55 | 232 | 0.0 | 0.0 | 0.00 | 0.00 | 1.00 | 81 | 1008.6 |
| 20260504221544 | 55 | 235 | 0.0 | 0.0 | 0.00 | 0.00 | 1.00 | 81 | 1008.7 |
| 20260504221027 | 55 | 236 | 0.0 | 0.0 | 0.00 | 0.00 | 1.00 | 81 | 1008.8 |
| 20260504215507 | 56 | 235 | 0.0 | 0.0 | 0.04 | 0.00 | 1.00 | 81 | 1008.5 |
| 20260504214449 | 56 | 236 | 0.0 | 0.0 | 0.04 | 0.00 | 1.00 | 82 | 1008.5 |